Погода в Мюльхайм-на-Руре

Германия     51°26′18″N   6°53′27″E
темп.,
°C
ветер,
м/с
пор.,
м/с
влажн.,
%
обл.,
%
осадки,
мм/ч
давл.,
гПа
погр.,
м
14 мая, пт
пт1423:00+11зюз2794100 0.4 1007344
02:00+11зюз2695100 0.5 1007314
05:00+9юз2693100 0.1 1007257
08:00+9юз3580100 0.1 1008249
11:00+15зюз355044 0.0 10081265
14:00+17з344871 0.2 10071813
17:00+16зюз335721 0.3 1007860
20:00+13зюз258759 2.0 1007198
15 мая, сб
сб1523:00+10ююз25940 0.4 1008115
02:00+8ююз27965 0.4 1007181
05:00+7ю269794 0.0 1007199
08:00+8ю389392 0.1 1007507
11:00+12ююз467698 0.2 10061011
14:00+9юз41086100 1.3 1005635
17:00+13юз5666100 0.3 10041578
20:00+9юз3791100 1.1 1004645
16 мая, вс
вс1623:00+9ююз3890100 0.1 1005562
02:00+8ююз310935 0.2 1005412
05:00+7ю3109543 0.1 1004350
08:00+9ююз4118940 0.2 1004655
11:00+13юз5864100 0.4 10041376
14:00+12ююз687841 2.1 10041150
17:00+12юз487778 1.5 10031177
20:00+11юз3888100 2.8 1002434
17 мая, пн
пн1723:00+9ю2796100 0.7 1002185
02:00+9ююз3896100 2.1 1002409
05:00+9юз5119399 2.0 1002736
08:00+9ююз5129296 2.1 1003838
11:00+9ююз61593100 2.0 10021596
14:00+10юз71495100 4.4 10031110
17:00+12юз61291100 1.9 10041152
20:00+11юз51191100 4.6 1004662
18 мая, вт
вт1823:00+10юз41097100 2.1 1006437
02:00+9юз5119799 3.1 1007752
05:00+9юз51197100 2.0 1007788
08:00+9юз51094100 2.2 1009992
11:00+9юз6109299 0.4 10111052
14:00+9юз61289100 1.1 10111075
17:00+11з599095 1.8 1012980
20:00+10зюз499087 4.1 1012654